User: anonymous   Login
Location: Pacheco
(37.9835°N, 122.0752°W)
Time: 01:30:42
(UTC+00:00)
Language:

KORONAS-FOTON - Orbit

View from above orbital plane
View from above orbital plane
View from above satellite
View from above satellite

Ground track
Ground track

The orbit data is extracted from the following two-line orbital elements,

1 33504U 09003A   24174.57349801  .00005680  00000-0  21658-3 0  9996
2 33504  82.4358 197.3474 0014596 215.9439 144.0819 15.26378986849845
Epoch (UTC): 22 June 2024 13:45:50
Eccentricity: 0.0014596
inclination: 82.4358°
perigee height: 476 km
apogee height: 496 km
right ascension of ascending node: 197.3474°
argument of perigee: 215.9439°
revolutions per day: 15.26378986
mean anomaly at epoch: 144.0819°
orbit number at epoch: 84984

The dashed part of the orbit path shows where the satellite is in the earth's shadow,  

DLR